Location: Kumla
(59.1265°N, 15.1401°E)
Time: 06:24:19
(UTC+01:00)

Transit 4A - Pass Details

Date: 10 December 2023
Orbit: 870 x 973 km, 66.8° (Epoch: 02 March)

Event Time Altitude Azimuth Distance (km) Brightness Sun altitude
Rises 18:05:18 0° 174° (S) 3,658 11.1 -21.2°
Reaches altitude 10° 18:08:20 10° 161° (SSE) 2,711 10.2 -21.6°
Enters shadow 18:11:08 20° 138° (SE) 2,062 9.4 -21.9°
